Theta_e
301 301 302 302 302 303 302 302 302 303 304 304 304 305 305 305 305 305 306 306 306 307 307 308 309 309 310 311 313 313 313 312
301 301 301 302 302 302 301 301 301 302 302 302 301 302 302 302 302 302 303 302 302 303 303 304 305 306 306 307 307 307 309 311
300 300 300 300 299 299 299 299 299 299 300 299 299 299 299 298 298 299 299 299 299 299 299 300 301 302 302 303 304 304 304 305
299 299 298 297 297 297 297 296 297 297 298 297 296 296 295 296 296 296 296 296 297 297 296 297 298 298 299 300 300 301 302 302
297 297 296 297 297 296 296 296 295 296 296 295 294 293 293 294 293 294 294 294 294 295 295 295 295 295 296 297 297 298 299 300
295 295 295 296 296 296 296 295 295 295 294 293 293 292 292 292 292 292 292 292 292 292 292 293 293 294 294 294 295 294 294 295
294 294 294 294 294 294 294 293 294 293 292 291 290 289 289 289 289 289 289 289 289 289 290 290 291 292 291 291 292 292 291 291
293 294 294 294 293 293 293 293 291 291 289 288 287 287 287 287 287 287 287 287 287 287 288 288 289 290 290 290 290 291 291 290
294 293 293 293 292 291 291 290 289 288 288 287 286 286 285 285 285 286 286 286 285 286 286 287 287 288 289 289 290 291 291 291
294 293 292 291 290 289 288 288 287 287 286 286 285 284 283 283 284 285 285 285 285 285 285 285 285 287 287 288 288 288 288 289
291 290 290 288 288 287 286 286 285 284 284 284 284 282 282 283 283 284 283 283 284 284 284 284 283 285 286 287 287 286 287 288
290 289 287 286 286 285 284 283 283 282 282 282 282 282 282 282 283 282 282 282 282 283 284 284 284 284 285 286 286 286 285 285
289 287 286 284 283 282 282 282 281 280 279 280 281 282 282 281 283 283 281 281 282 283 284 286 285 284 285 286 286 288 284 283
286 284 282 280 280 279 280 279 278 276 276 277 279 281 283 282 283 282 281 280 282 283 283 283 284 284 285 285 287 286 283 284
281 279 278 278 277 276 276 277 274 274 275 277 277 279 281 282 283 283 282 281 281 282 282 282 281 282 284 285 285 283 283 284
276 275 274 274 274 274 274 273 272 273 275 276 277 278 279 280 281 281 282 282 280 280 281 281 281 283 284 284 284 284 285 285
271 270 271 270 270 270 270 270 269 271 273 274 273 275 276 276 277 280 281 282 284 284 284 284 286 285 285 286 285 285 285 284
268 267 267 267 266 267 268 268 267 268 269 270 271 272 273 273 274 274 277 281 283 283 285 285 286 285 285 286 286 286 285 283
264 264 263 263 263 265 267 266 265 266 266 267 269 270 270 271 272 273 274 274 277 282 283 284 286 285 286 287 284 281 281 281
260 260 260 259 261 264 264 263 264 265 266 267 267 268 268 269 270 271 272 273 276 279 281 281 284 286 287 286 282 279 276 275
Wind_Speed
10 10 10 11 11 12 12 12 11 10 9 8 9 8 7 7 7 7 7 8 8 8 8 9 9 10 10 10 11 12 10 9
10 9 11 11 10 11 11 11 10 9 9 9 8 8 8 7 7 7 6 7 7 8 8 9 10 10 10 11 12 13 13 13
10 10 10 10 10 10 10 10 9 8 8 9 8 8 8 8 8 8 8 8 8 8 8 8 8 9 10 11 11 13 13 13
9 8 9 9 9 8 9 8 7 7 8 8 9 9 9 9 9 8 9 9 8 8 9 9 10 10 10 11 12 12 13 12
9 8 8 7 8 8 8 7 6 7 8 9 9 9 9 8 9 9 9 10 10 10 10 10 10 10 10 11 12 12 12 11
9 8 7 7 6 6 6 6 6 8 9 9 9 9 9 10 10 10 9 10 10 11 11 11 10 8 11 12 12 12 13 13
10 9 7 6 5 5 6 6 6 7 7 7 8 8 8 8 9 9 9 9 10 10 10 11 9 14 16 13 10 11 10 12
10 8 6 5 3 5 5 5 5 5 5 5 6 7 8 8 9 9 10 10 10 10 10 11 11 17 19 17 10 10 11 13
9 8 5 4 4 3 4 4 4 5 4 5 7 7 8 9 9 9 9 9 10 11 11 12 10 18 19 17 12 11 12 12
8 7 6 4 3 2 3 3 4 6 6 7 6 7 8 8 9 10 9 9 9 9 11 11 12 18 20 17 10 11 12 11
7 6 6 3 2 2 5 5 8 9 9 9 8 6 8 9 10 7 9 10 8 11 10 12 14 17 19 16 9 12 10 10
6 6 5 4 4 6 6 6 7 7 8 8 8 8 9 9 8 9 10 10 10 11 10 11 11 13 18 18 10 9 10 9
5 6 6 6 5 4 4 5 6 6 8 8 8 8 8 10 10 10 10 11 11 11 12 8 9 12 16 16 17 11 6 9
5 5 5 4 3 4 5 7 8 8 9 9 9 9 9 10 11 10 10 10 11 9 10 11 8 8 16 17 12 11 8 7
5 3 2 3 4 4 7 7 7 9 9 9 9 10 9 8 8 9 10 10 11 11 11 12 10 10 7 6 6 7 7 7
4 2 4 6 7 7 8 7 8 8 9 11 9 10 11 10 10 10 11 12 12 12 10 10 10 9 12 10 6 5 4 1
3 3 5 6 7 7 6 7 8 11 9 9 10 10 10 10 12 17 23 25 26 26 21 11 17 18 18 16 11 10 5 2
2 3 5 6 7 7 7 6 7 10 11 10 10 10 10 10 10 14 15 21 23 24 25 21 20 15 15 14 11 10 6 3
3 4 5 5 7 7 8 8 7 9 12 10 10 10 10 10 11 11 12 15 13 14 16 17 18 15 15 11 8 3 2 3
4 5 4 5 7 6 6 8 9 10 10 10 10 10 11 11 11 11 13 14 14 11 11 9 14 16 13 14 4 4 4 4
Wind_Direction
93 91 87 81 79 76 74 75 71 70 66 64 57 55 50 41 26 11 359 347 336 330 321 312 304 296 287 281 278 273 269 260
105 96 87 83 76 73 70 69 67 68 69 67 58 46 43 40 28 11 354 353 341 331 321 313 309 306 298 290 286 280 278 274
106 96 89 81 72 63 59 61 52 49 60 58 51 42 39 30 15 4 355 350 340 334 325 316 308 303 293 293 285 283 283 280
111 103 96 89 80 72 62 57 50 42 48 48 39 31 23 15 7 1 353 347 345 340 335 327 323 318 311 299 290 287 283 279
122 113 100 87 78 70 63 51 43 43 43 40 33 22 13 6 1 358 353 348 346 343 334 329 320 312 303 298 295 288 285 281
134 123 108 96 81 72 67 52 32 33 33 29 21 14 4 358 355 350 347 344 341 335 330 326 315 309 314 307 301 295 292 287
138 130 120 106 76 56 48 44 32 41 34 17 10 358 354 346 339 333 330 331 331 326 320 315 311 308 306 302 296 291 284 287
141 133 115 99 83 64 49 37 43 33 20 5 354 344 342 333 329 330 326 322 318 313 313 306 302 299 302 301 296 289 284 286
141 137 124 104 81 54 56 46 39 26 359 348 344 334 330 328 322 320 318 315 311 304 302 300 293 297 300 298 290 281 281 278
134 126 128 110 55 46 73 39 47 16 352 342 335 323 323 314 316 316 311 309 299 293 291 288 291 296 296 298 290 281 279 279
135 131 125 85 23 52 44 27 20 359 339 330 325 311 310 309 306 300 297 292 291 289 280 276 281 287 287 291 283 283 284 284
129 112 101 74 35 36 15 16 347 329 320 313 312 306 302 302 300 300 301 295 290 289 289 281 271 289 295 290 282 281 289 293
122 98 79 53 36 3 350 346 320 313 306 306 307 307 306 305 305 304 303 298 298 296 296 291 287 280 296 296 288 284 287 290
116 105 84 56 30 333 340 334 329 326 312 308 306 298 294 290 295 297 292 292 292 294 297 301 308 304 299 295 288 291 288 282
97 61 30 14 355 342 331 331 324 307 300 301 296 298 292 287 285 285 289 287 289 295 296 300 301 304 301 286 285 282 280 279
86 43 347 343 334 337 330 323 311 300 297 298 295 297 300 286 283 277 273 275 283 281 282 289 286 291 293 278 270 272 269 251
52 348 331 331 312 309 312 320 314 307 305 307 303 297 293 290 290 275 280 283 278 277 269 279 272 277 281 276 255 247 198 173
322 307 304 297 295 290 295 297 291 298 302 298 294 293 293 291 291 299 303 289 282 279 274 275 276 268 261 261 237 230 170 172
287 286 284 284 280 291 304 307 294 294 291 287 291 290 289 289 288 286 287 295 293 280 275 268 269 251 254 225 136 125 96 133
267 258 279 285 289 301 301 299 297 299 296 294 290 286 285 284 279 277 279 279 281 284 266 262 256 239 229 175 174 155 150 141